When you browse on this site, cookies collect data to enhance your experience and personalize the content and advertising you see.
Visit our Privacy Policy to learn more. By continuing to use the site, you agree to this use of cookies and data.
  • In Portugal
  • List of Countries
  • For 7 days
  • Water Temperature
  • Satellite Maps
  • Weather Map
  • Weather Widgets
  • user-avatar
    Login

    Hourly Weather Nakhchivan

    Today, 20 November, Tuesday

    Time Temperature Precipitation Wind Pressure Humidity
    00:00 +8°C° 0 mm 1 mps 689 mmHg 51%
    01:00 +8°C° 0 mm 1 mps 689 mmHg 52%
    02:00 +8°C° 0 mm 1 mps 689 mmHg 53%
    03:00 +8°C° 0 mm 1 mps 689 mmHg 53%
    04:00 +7°C° 0 mm 1 mps 688 mmHg 54%
    05:00 +6°C° 0 mm 0 mps 688 mmHg 55%
    06:00 +6°C° 0 mm 0 mps 688 mmHg 56%
    07:00 +7°C° 0 mm 0 mps 689 mmHg 51%
    08:00 +9°C° 0 mm 0 mps 689 mmHg 46%
    09:00 +11°C° 0 mm 0 mps 689 mmHg 41%
    10:00 +12°C° 0 mm 1 mps 689 mmHg 39%
    11:00 +13°C° 0 mm 1 mps 688 mmHg 37%
    12:00 +14°C° 0 mm 1 mps 688 mmHg 35%
    13:00 +14°C° 0 mm 1 mps 688 mmHg 35%
    14:00 +15°C° 0 mm 1 mps 687 mmHg 34%
    15:00 +15°C° 0 mm 2 mps 687 mmHg 34%
    16:00 +14°C° 0 mm 1 mps 687 mmHg 37%
    17:00 +13°C° 0 mm 1 mps 687 mmHg 40%
    18:00 +12°C° 0 mm 1 mps 687 mmHg 43%
    19:00 +12°C° 0 mm 1 mps 687 mmHg 45%
    20:00 +11°C° 0 mm 1 mps 687 mmHg 47%
    21:00 +11°C° 0 mm 1 mps 687 mmHg 49%
    22:00 +10°C° 0 mm 1 mps 687 mmHg 51%
    23:00 +9°C° 0 mm 1 mps 686 mmHg 53%

    Tomorrow, 21 November, Wednesday

    Time Temperature Precipitation Wind Pressure Humidity
    00:00 +9°C° 0 mm 1 mps 686 mmHg 56%
    01:00 +8°C° 0 mm 1 mps 686 mmHg 57%
    02:00 +8°C° 0 mm 1 mps 686 mmHg 59%
    03:00 +8°C° 0 mm 1 mps 686 mmHg 60%
    04:00 +7°C° 0 mm 1 mps 685 mmHg 61%
    05:00 +7°C° 0 mm 1 mps 685 mmHg 62%
    06:00 +7°C° 0 mm 1 mps 685 mmHg 64%
    07:00 +8°C° 0 mm 1 mps 685 mmHg 58%
    08:00 +10°C° 0 mm 1 mps 685 mmHg 53%
    09:00 +11°C° 0 mm 1 mps 686 mmHg 48%
    10:00 +12°C° 0 mm 1 mps 685 mmHg 45%
    11:00 +13°C° 0 mm 1 mps 685 mmHg 42%
    12:00 +14°C° 0 mm 2 mps 685 mmHg 40%
    13:00 +14°C° 0 mm 2 mps 684 mmHg 39%
    14:00 +14°C° 0 mm 2 mps 684 mmHg 39%
    15:00 +14°C° 0 mm 2 mps 684 mmHg 38%
    16:00 +13°C° 0 mm 1 mps 684 mmHg 42%
    17:00 +12°C° 0 mm 1 mps 684 mmHg 45%
    18:00 +11°C° 0 mm 1 mps 684 mmHg 49%
    19:00 +11°C° 0 mm 1 mps 684 mmHg 50%
    20:00 +11°C° 0 mm 1 mps 684 mmHg 50%
    21:00 +11°C° 0 mm 1 mps 684 mmHg 51%
    22:00 +11°C° 0.1 mm 1 mps 684 mmHg 53%
    23:00 +10°C° 0.1 mm 1 mps 684 mmHg 54%

    Day after tomorrow, 22 November, Thursday

    Time Temperature Precipitation Wind Pressure Humidity
    00:00 +10°C° 0.1 mm 1 mps 684 mmHg 56%
    01:00 +10°C° 0.1 mm 1 mps 684 mmHg 57%
    02:00 +10°C° 0.1 mm 1 mps 684 mmHg 59%
    03:00 +10°C° 0.1 mm 1 mps 684 mmHg 61%
    04:00 +10°C° 0.1 mm 1 mps 684 mmHg 62%
    05:00 +9°C° 0.1 mm 1 mps 683 mmHg 64%
    06:00 +9°C° 0.1 mm 1 mps 683 mmHg 65%
    07:00 +9°C° 0.1 mm 2 mps 684 mmHg 63%
    08:00 +10°C° 0.1 mm 2 mps 684 mmHg 61%
    09:00 +10°C° 0.1 mm 2 mps 684 mmHg 59%
    10:00 +12°C° 0 mm 2 mps 684 mmHg 57%
    11:00 +13°C° 0 mm 2 mps 684 mmHg 54%
    12:00 +14°C° 0 mm 2 mps 683 mmHg 51%
    13:00 +14°C° 0 mm 2 mps 683 mmHg 50%
    14:00 +14°C° 0 mm 2 mps 683 mmHg 49%
    15:00 +15°C° 0 mm 2 mps 683 mmHg 49%
    16:00 +14°C° 0.1 mm 2 mps 683 mmHg 52%
    17:00 +13°C° 0.1 mm 1 mps 683 mmHg 55%
    18:00 +13°C° 0.1 mm 1 mps 683 mmHg 58%
    19:00 +12°C° 0.3 mm 1 mps 683 mmHg 61%
    20:00 +12°C° 0.3 mm 1 mps 683 mmHg 64%
    21:00 +12°C° 0.3 mm 1 mps 683 mmHg 67%
    22:00 +11°C° 0.2 mm 1 mps 683 mmHg 69%
    23:00 +11°C° 0.2 mm 1 mps 683 mmHg 71%

    23 November, Friday

    Time Temperature Precipitation Wind Pressure Humidity
    00:00 +11°C° 0.2 mm 1 mps 683 mmHg 72%
    01:00 +11°C° 0.3 mm 1 mps 683 mmHg 74%
    02:00 +10°C° 0.3 mm 1 mps 683 mmHg 76%
    03:00 +10°C° 0.3 mm 1 mps 683 mmHg 78%
    04:00 +10°C° 0.2 mm 1 mps 683 mmHg 80%
    05:00 +10°C° 0.2 mm 1 mps 683 mmHg 81%
    06:00 +10°C° 0.2 mm 1 mps 683 mmHg 82%
    07:00 +10°C° 0.2 mm 1 mps 683 mmHg 80%
    08:00 +11°C° 0.2 mm 1 mps 684 mmHg 78%
    09:00 +11°C° 0.2 mm 1 mps 684 mmHg 76%
    10:00 +12°C° 0.2 mm 1 mps 684 mmHg 73%
    11:00 +12°C° 0.2 mm 1 mps 684 mmHg 70%
    12:00 +13°C° 0.2 mm 1 mps 684 mmHg 67%
    13:00 +13°C° 0 mm 2 mps 684 mmHg 66%
    14:00 +13°C° 0 mm 2 mps 684 mmHg 65%
    15:00 +13°C° 0 mm 2 mps 684 mmHg 63%
    16:00 +13°C° 0 mm 1 mps 684 mmHg 66%
    17:00 +12°C° 0 mm 1 mps 684 mmHg 70%
    18:00 +11°C° 0 mm 1 mps 685 mmHg 73%
    19:00 +11°C° 0 mm 1 mps 685 mmHg 73%
    20:00 +10°C° 0 mm 1 mps 686 mmHg 74%
    21:00 +10°C° 0 mm 1 mps 686 mmHg 75%
    22:00 +10°C° 0.1 mm 1 mps 687 mmHg 75%
    23:00 +10°C° 0.1 mm 1 mps 687 mmHg 75%

    24 November, Saturday

    Time Temperature Precipitation Wind Pressure Humidity
    00:00 +9°C° 0.1 mm 1 mps 687 mmHg 75%
    01:00 +9°C° 0.4 mm 1 mps 687 mmHg 75%
    02:00 +9°C° 0.4 mm 1 mps 688 mmHg 76%
    03:00 +9°C° 0.4 mm 1 mps 688 mmHg 77%
    04:00 +9°C° 0.3 mm 1 mps 688 mmHg 77%
    05:00 +9°C° 0.3 mm 1 mps 689 mmHg 77%
    06:00 +8°C° 0.3 mm 1 mps 689 mmHg 77%
    07:00 +9°C° 0.1 mm 1 mps 690 mmHg 74%
    08:00 +10°C° 0.1 mm 1 mps 690 mmHg 71%
    09:00 +10°C° 0.1 mm 1 mps 691 mmHg 68%
    10:00 +11°C° 0 mm 1 mps 691 mmHg 65%
    11:00 +11°C° 0 mm 1 mps 691 mmHg 62%
    12:00 +12°C° 0 mm 2 mps 691 mmHg 59%
    13:00 +12°C° 0 mm 2 mps 691 mmHg 57%
    14:00 +12°C° 0 mm 2 mps 691 mmHg 56%
    15:00 +13°C° 0 mm 2 mps 691 mmHg 55%
    16:00 +12°C° 0 mm 2 mps 691 mmHg 56%
    17:00 +10°C° 0 mm 2 mps 692 mmHg 58%
    18:00 +10°C° 0 mm 2 mps 692 mmHg 59%
    19:00 +10°C° 0 mm 1 mps 692 mmHg 61%
    20:00 +10°C° 0 mm 1 mps 692 mmHg 62%
    21:00 +9°C° 0 mm 1 mps 692 mmHg 63%
    22:00 +9°C° 0 mm 1 mps 691 mmHg 64%
    23:00 +9°C° 0 mm 1 mps 691 mmHg 65%

    25 November, Sunday

    Time Temperature Precipitation Wind Pressure Humidity
    00:00 +8°C° 0 mm 1 mps 691 mmHg 66%
    01:00 +8°C° 0 mm 1 mps 690 mmHg 66%
    02:00 +8°C° 0 mm 1 mps 690 mmHg 67%
    03:00 +7°C° 0 mm 1 mps 690 mmHg 68%
    04:00 +7°C° 0 mm 1 mps 689 mmHg 68%
    05:00 +7°C° 0 mm 1 mps 689 mmHg 68%
    06:00 +7°C° 0 mm 1 mps 688 mmHg 67%
    07:00 +8°C° 0 mm 1 mps 688 mmHg 64%
    08:00 +9°C° 0 mm 1 mps 688 mmHg 61%
    09:00 +10°C° 0 mm 1 mps 688 mmHg 58%
    10:00 +10°C° 0 mm 1 mps 687 mmHg 56%
    11:00 +11°C° 0 mm 1 mps 687 mmHg 55%
    12:00 +12°C° 0 mm 1 mps 686 mmHg 53%
    13:00 +12°C° 0 mm 1 mps 686 mmHg 53%
    14:00 +12°C° 0 mm 1 mps 685 mmHg 53%
    15:00 +12°C° 0 mm 1 mps 685 mmHg 52%
    16:00 +10°C° 0.1 mm 0 mps 685 mmHg 56%
    17:00 +10°C° 0.1 mm 0 mps 685 mmHg 59%
    18:00 +9°C° 0.1 mm 0 mps 685 mmHg 62%
    19:00 +9°C° 0.1 mm 0 mps 685 mmHg 64%
    20:00 +8°C° 0.1 mm 0 mps 685 mmHg 65%
    21:00 +8°C° 0.1 mm 0 mps 685 mmHg 67%
    22:00 +8°C° 0 mm 0 mps 685 mmHg 68%
    23:00 +7°C° 0 mm 0 mps 685 mmHg 69%
    Show more